Regional Weather Roundup
Issued by NWS

Home | Current Version | Previous Version | Text Only | Print | Product List | Glossary On
Versions: 1 2 3 4 5 6 7 8 9 10 11 12 13 14 15 16 17 18 19 20 21 22 23 24 25 26 27 28 29 30 31 32 33 34 35 36 37 38 39 40 41 42 43 44 45 46 47 48 49 50
000
ASUS43 KOAX 030710
RWRNE

WEATHER ROUNDUP FOR NEBRASKA
NATIONAL WEATHER SERVICE OMAHA NE
200 AM CDT WED SEP 03 2014

NOTES: SATELLITE DATA IS BEING USED TO AUGMENT CLOUD COVER ABOVE
       12000 FEET.
       "FAIR" INDICATES FEW OR NO CLOUDS BELOW 12,000 FEET WITH NO
       SIGNIFICANT WEATHER AND/OR OBSTRUCTIONS TO VISIBILITY.

  * THESE STATIONS DO NOT REPORT WEATHER SUCH AS RAIN...SNOW OR FOG.

NEZ001>004-019>022-054>056-030800-
NEBRASKA PANHANDLE

CITY           SKY/WX    TMP DP  RH WIND       PRES   REMARKS
SCOTTSBLUFF    CLEAR     61  54  77 E8        29.82F
ALLIANCE       CLEAR     67  55  65 S15       29.82F
CHADRON        CLEAR     55  49  80 CALM      29.74F
KIMBALL        CLEAR     68  53  58 SW13      29.90S
SIDNEY         CLEAR     67  54  63 S12       29.90F
$$

NEZ057>060-069>072-079>082-030800-
SOUTHWEST NEBRASKA

CITY           SKY/WX    TMP DP  RH WIND       PRES   REMARKS
NORTH PLATTE   CLEAR     69  64  84 SE9       29.87F
IMPERIAL       CLEAR     68  62  81 S10       29.89F
LEXINGTON      CLEAR     69  66  90 S9        29.89F
MCCOOK         CLEAR     69  66  90 S9        29.89F
OGALLALA       CLEAR     67  61  81 S10G18    29.86S
$$

NEZ005>010-023>029-035>040-094-030800-
NORTH CENTRAL NEBRASKA

CITY           SKY/WX    TMP DP  RH WIND       PRES   REMARKS
VALENTINE      CLEAR     70  62  76 S17G25    29.78F
AINSWORTH      CLEAR     67  62  84 S17       29.81F
BROKEN BOW     CLEAR     63  60  90 S3        29.87F
O`NEILL        CLEAR     67  61  81 S9        29.85S
ORD            CLEAR     65  60  84 SE7       29.86S
THEDFORD       CLEAR     70  65  85 S15       29.85S
$$

NEZ041-046>049-061>064-073>077-083>087-030800-
SOUTH CENTRAL NEBRASKA

CITY           SKY/WX    TMP DP  RH WIND       PRES   REMARKS
GRAND ISLAND   CLEAR     66  61  84 S10       29.90S
AURORA         CLEAR     65  63  92 S9        29.90S
HASTINGS       CLEAR     68  62  81 S10       29.90S
HEBRON         CLEAR     70  65  84 S7        29.92S
HOLDREGE       CLEAR     67  65  90 S7        29.90S
KEARNEY *      CLEAR     64  63  94 SE7       29.91R
YORK           CLEAR     66 N/A N/A S13       29.91S
$$

NEZ011>018-030>034-042>045-030800-
NORTHEAST NEBRASKA

CITY           SKY/WX    TMP DP  RH WIND       PRES   REMARKS
NORFOLK        CLEAR     66  58  75 SE10      29.87F
ALBION         CLEAR     64  56  78 SE7       29.88S
BLAIR          PTCLDY    66  59  79 SE6       29.92S
FREMONT        CLEAR     67  60  77 SE8       29.90F
TEKAMAH        CLEAR     61  59  93 SE7       29.90F
WAYNE          CLEAR     63  59  88 S9        29.88S
$$

NEZ050>053-065>068-078-088>093-030800-
SOUTHEAST NEBRASKA

CITY           SKY/WX    TMP DP  RH WIND       PRES   REMARKS
LINCOLN        CLEAR     68  63  84 S9        29.91S
OMAHA EPPLEY   CLEAR     66  58  75 SE6       29.92S
BEATRICE       CLEAR     68  66  92 S7        29.93S
FALLS CITY     CLEAR     64  63  96 E3        29.93F
NEBRASKA CITY  CLEAR     65  65 100 S7        29.94S
PLATTSMOUTH    CLEAR     66  61  83 SE7       29.93S
$$

NEZ044-045-051>053-067-030800-
OMAHA AREA

CITY           SKY/WX    TMP DP  RH WIND       PRES   REMARKS
OMAHA EPPLEY   CLEAR     66  58  75 SE6       29.92S
BLAIR          PTCLDY    66  59  79 SE6       29.92S
FREMONT        CLEAR     67  60  77 SE8       29.90F
MILLARD        CLEAR     65  60  83 CALM      29.91S
OFFUTT AFB     PTCLDY    64  64  99 E7        29.92S
PLATTSMOUTH    CLEAR     66  61  83 SE7       29.93S
WAHOO          FAIR      62  58  88 SE5       29.91S
$$


USA.gov is the U.S. government's official web portal to all federal, state and local government web resources and services.